Flag for Germany Weather past 2 weeks in Mayen, Rhineland-Palatinate, Germany

Now
46 °F

Cool.


Feels Like: 44 °F
Forecast: 47 / 66 °F
Wind: 5 mph from West

Location: Buechel

Current Time: Aug 21, 2014 at 3:33:47 AM

Latest Report: Aug 21, 2014 at 2:20 AM


Visibility: N/A

Pressure: 30.04 "Hg

Humidity: 87%

Dew point: 43 °F

Location of MayenLocation

Historic Weather in Mayen — Graph

°F

Mayen temperature yesterday

Maximum temperature yesterday: 59 °F (at 3:20 PM)
Minimum temperature yesterday: 43 °F (at 5:20 AM)
Average temperature yesterday: 51 °F

Past Weeks' High & Low Weather Summary

 TemperatureHumidityPressure
High72 °F (Aug 7, 4:20 PM)100% (Aug 7, 7:59 AM)30.12 "Hg (Aug 7, 7:59 AM)
Low43 °F (Aug 20, 5:20 AM)43% (Aug 6, 1:20 PM)29.68 "Hg (Aug 10, 7:20 PM)
Average58 °F79%29.92 "Hg
* Reported Aug 6 1:20 AM — Aug 21 1:20 AM, Mayen, Weather by CustomWeather, © 2014

Note: Actual official high and low records may vary slightly from our data, if they occured in-between our weather recording intervals... More about our weather records

Advertising

Mayen weather history for previous 24 hours

 ConditionsComfort  
Time TempWeatherWind HumidityBarometerVisibility
1:20 AM
Aug 21
46 °FCool.5 mph87%30.04 "HgN/A
12:20 AM48 °FCool.5 mph82%30.04 "HgN/A
11:20 PM
Aug 20
48 °FCool.6 mph82%30.04 "HgN/A
10:20 PM52 °FCool.6 mph72%30.04 "HgN/A
9:20 PM54 °FCool.7 mph72%30.01 "HgN/A
8:20 PM57 °FRefreshingly cool.2 mph59%30.01 "HgN/A
7:20 PM57 °FRefreshingly cool.5 mph59%30.01 "HgN/A
6:20 PM57 °FBroken clouds.8 mph55%30.01 "HgN/A
5:20 PM59 °FBroken clouds.3 mph55%30.01 "HgN/A
4:20 PM57 °FBroken clouds.5 mph59%30.01 "HgN/A
3:20 PM59 °FScattered clouds.6 mph51%30.01 "HgN/A
2:20 PM55 °FScattered clouds.6 mph63%30.04 "HgN/A
1:20 PM55 °FBroken clouds.6 mph59%30.04 "HgN/A
12:20 PM55 °FBroken clouds.7 mph59%30.04 "HgN/A
11:20 AM55 °FScattered clouds.7 mph63%30.04 "HgN/A
10:20 AM52 °FScattered clouds.8 mph77%30.04 "HgN/A
9:20 AM48 °FScattered clouds.7 mph87%30.04 "HgN/A
8:20 AM45 °FScattered clouds.7 mph93%30.04 "HgN/A
7:20 AM43 °FPassing clouds.7 mph100%30.01 "HgN/A
6:20 AM43 °FPassing clouds.6 mph93%30.01 "HgN/A
5:20 AM43 °FQuite cool.5 mph93%30.01 "HgN/A
4:20 AM45 °FQuite cool.5 mph87%30.01 "HgN/A
3:20 AM45 °FQuite cool.5 mph87%30.01 "HgN/A
Weather by CustomWeather, © 2014

See weather overviewHow to use our weather pages